TOURFACTS.DK  
Stats and Facts from Tour de France.

Tour de France 2019 starts in 323 days
  Riders   Stages   Teams   Summits   Yearly  


 
Search by year

After 2018 - Stage 21:
 15000 starters.
  5165 different riders.
  638 teams.
  2253 stages.
  456 restdays.
  442940.60 km.
  5684 abandonnees.


Top 3
GC
Geraint Thomas83:17:13
Tom Dumoulin83:19:04
Christopher Froome83:19:37
Climb
Julian Alaphilippe170 pt.
Warren Barguil91 pt.
Rafal Majka76 pt.
Sprint
Peter Sagan477 pt.
Alexander Kristoff246 pt.
Arnaud Démare203 pt.
Youth
Pierre-Roger Latou..83:39:26
Egan Bernal83:45:05
Guillaume Martin84:01:31
Facts from Tour de France 1949
  |   Stages.  |   Stage winners.  |   Days in yellow  |   Average speed.  |   Route.  |   Teams.  |   All riders.  |   Rookies.  |  

  |   Withdrawls.  |   GC.  |   Polka  |   Green  |   White  |   Summits. (In tour)  |   Miscellaneous.  |  

Stage 4 on 03 - 07 - 1949
         Owning:    Jacques Marinelli    
Pick a stage:  1 2 3 4 5 6 7 8 9 10 11 12 13 14 15 16 17 18 19 20 21
  Boulogne-sur-MerRouen | Dist: 185.00 km.

Average speed for all riders in stage:  34,170 km./hr.
    Place:Name:Team:Time:Km/h:
1
FRALucien TeisseireFRAFrance05:10:04  +  00:00:00=35,799 
2
FRAJacques MarinelliFRAIle De France05:10:04  +  00:00:00=35,799 
3
FRAMaurice DiotFRAFrance05:11:46  +  00:01:42=35,604 
44 ITAMario RicciITAItaly05:13:50  +  00:03:46=35,369 
55 FRAEdouard MullerFRAIle De France05:13:50  +  00:03:46=35,369 
66 FRAEmile IdéeFRAIle De France05:13:50  +  00:03:46=35,369 
77 ITAAttilio RedolfiFRAIle De France05:13:50  +  00:03:46=35,369 
88 FRARobert ChapatteFRAFrance05:13:50  +  00:03:46=35,369 
99 ITAÉdouard FachleitnerFRASouth-East05:13:50  +  00:03:46=35,369 
1010 FRARobert DesbatsFRACenter-South West05:13:50  +  00:03:46=35,369 
1111 ITAVittorio MagniITACadetti Italiens05:13:50  +  00:03:46=35,369 
1212 FRAAndre MahéFRAWest-North05:14:11  +  00:04:07=35,330 
1313 FRAGuy LapébieFRAFrance05:15:01  +  00:04:57=35,236 
1414 BELRoger LambrechtBELBelgium05:19:41  +  00:09:37=34,722 
1515 ITAGiuseppe AusendaITACadetti Italiens05:20:27  +  00:10:23=34,639 
1616 FRAMarcel DussaultFRACenter-South West05:22:28  +  00:12:24=34,422 
1717 FRACamille DanguillaumeFRAFrance05:22:56  +  00:12:52=34,372 
1818 SUIFerdi KüblerCHESwitzerland05:23:02  +  00:12:58=34,362 
1919 ITAGino SciardisITAItaly05:23:02  +  00:12:58=34,362 
2020 BELStan OckersBELBelgium05:23:02  +  00:12:58=34,362 
2121 BELRik Van SteenbergenBELBelgium05:23:02  +  00:12:58=34,362 
2222 LUXMarcel ErnzerLUXLuxembourg05:23:02  +  00:12:58=34,362 
2323 BELJoseph VerhaertBELAiglons Belges05:23:02  +  00:12:58=34,362 
2424 BELMarcel HendrickxBELAiglons Belges05:23:02  +  00:12:58=34,362 
2525 BELMarcel DupontBELAiglons Belges05:23:02  +  00:12:58=34,362 
2626 FRAPierre MolinerisFRASouth-East05:23:02  +  00:12:58=34,362 
2727 BELMarcel De MulderBELAiglons Belges05:23:02  +  00:12:58=34,362 
2828 ITAArmando PeverelliITACadetti Italiens05:23:02  +  00:12:58=34,362 
2929 ITASylvio PedroniITACadetti Italiens05:23:02  +  00:12:58=34,362 
3030 ITAAlfredo MartiniITACadetti Italiens05:23:02  +  00:12:58=34,362 
3131 FRAHenri MassalFRACenter-South West05:23:02  +  00:12:58=34,362 
3232 FRAAndré BruléFRAIle De France05:23:02  +  00:12:58=34,362 
3333 FRALouis CaputFRAIle De France05:23:02  +  00:12:58=34,362 
3434 FRAAlbert DolhatsFRACenter-South West05:23:02  +  00:12:58=34,362 
3535 SUIPierre BrambillaFRASouth-East05:23:02  +  00:12:58=34,362 
3636 FRARoger PontetFRAWest-North05:23:02  +  00:12:58=34,362 
3737 FRAAntonin RollandFRASouth-East05:23:02  +  00:12:58=34,362 
3838 FRAJean-Marie GoasmatFRAWest-North05:23:02  +  00:12:58=34,362 
3939 FRARoger LevequeFRACenter-South West05:23:02  +  00:12:58=34,362 
4040 ITAGiuseppe TaccaFRAIle De France05:23:02  +  00:12:58=34,362 
4141 FRAGeorges RamouluxFRACenter-South West05:23:02  +  00:12:58=34,362 
4242 ITAFermo CamelliniFRASouth-East05:23:02  +  00:12:58=34,362 
4343 FRARaymond LucasFRAIle De France05:23:02  +  00:12:58=34,362 
4444 FRAGeorges MartinFRASouth-East05:23:02  +  00:12:58=34,362 
4545 FRAPierre CoganFRAWest-North05:23:02  +  00:12:58=34,362 
4646 FRADominique ForliniFRAIle De France05:23:02  +  00:12:58=34,362 
4747 NEDWim De RuyterNLDHolland05:23:02  +  00:12:58=34,362 
4848 BELRaymond ImpanisBELBelgium05:23:02  +  00:12:58=34,362 
4949 BELMarcel KintBELBelgium05:23:02  +  00:12:58=34,362 
5050 BELRoger GhyselinckBELBelgium05:23:02  +  00:12:58=34,362 
5151 SUIGeorges AeschlimannCHESwitzerland05:23:02  +  00:12:58=34,362 
5252 FRARené ViettoFRAFrance05:23:02  +  00:12:58=34,362 
5353 FRALucien LazaridesFRAFrance05:23:02  +  00:12:58=34,362 
5454 FRAJean-Apotre LazaridesFRAFrance05:23:02  +  00:12:58=34,362 
5555 FRARaphaël GeminianiFRAFrance05:23:02  +  00:12:58=34,362 
5656 FRABernard GauthierFRAFrance05:23:02  +  00:12:58=34,362 
5757 FRALouis DeprezFRAFrance05:23:02  +  00:12:58=34,362 
5858 ITAGino BartaliITAItaly05:23:02  +  00:12:58=34,362 
5959 BELEdward Van DijckBELBelgium05:23:02  +  00:12:58=34,362 
6060 BELBriek SchotteBELBelgium05:23:02  +  00:12:58=34,362 
6161 BELNorbert CallensBELBelgium05:23:02  +  00:12:58=34,362 
6262 BELJacques GeusBELAiglons Belges05:23:02  +  00:12:58=34,362 
6363 ITASerifano BiagioniITAItaly05:23:02  +  00:12:58=34,362 
6464 ITAFausto CoppiITAItaly05:23:02  +  00:12:58=34,362 
6565 ITAEttore MilanoITAItaly05:23:02  +  00:12:58=34,362 
6666 NEDHenk de HoogNLDHolland05:23:02  +  00:12:58=34,362 
6767 ITABruno PasquiniITAItaly05:23:02  +  00:12:58=34,362 
6868 ITALuciano PezziITAItaly05:23:02  +  00:12:58=34,362 
6969 BELFlorent MathieuBELBelgium05:23:02  +  00:12:58=34,362 
7070 ITAVincenzo RosselloITAItaly05:23:02  +  00:12:58=34,362 
7171 LUXJean KirchenLUXLuxembourg05:23:02  +  00:12:58=34,362 
7272 LUXJean GoldschmitLUXLuxembourg05:23:02  +  00:12:58=34,362 
7373 LUXJean DiederichLUXLuxembourg05:23:02  +  00:12:58=34,362 
7474 SUIGottfried WeilenmannCHESwitzerland05:23:02  +  00:12:58=34,362 
7575 FRALouison BobetFRAFrance05:23:30  +  00:13:26=34,312 
7676 FRAAnge Le StratFRAWest-North05:23:30  +  00:13:26=34,312 
7777 NEDAndré De KorverNLDHolland05:23:30  +  00:13:26=34,312 
7878 FRAJean RobicFRAWest-North05:24:43  +  00:14:39=34,184 
7979 FRARoger Le NizerhyFRAWest-North05:24:43  +  00:14:39=34,184 
8080 FRAJean ReyFRASouth-East05:28:02  +  00:17:58=33,838 
8181 ITANello LaurediFRASouth-East05:28:12  +  00:18:08=33,821 
8282 MARCustodio Dos ReisFRACenter-South West05:32:10  +  00:22:06=33,417 
8383 FRAJean BlancFRACenter-South West05:32:10  +  00:22:06=33,417 
8484 BELDésiré KeteleerBELBelgium05:33:58  +  00:23:54=33,237 
8585 SUIErnst StettlerCHESwitzerland05:33:58  +  00:23:54=33,237 
8686 SUIHans HutmacherCHESwitzerland05:34:10  +  00:24:06=33,217 
8787 SUIRoger AeschlimannCHESwitzerland05:34:10  +  00:24:06=33,217 
8888 FRAPaul PineauFRACenter-South West05:38:04  +  00:28:00=32,834 
8989 ESPJulián BerrenderoESPSpain05:38:04  +  00:28:00=32,834 
9090 ESPDalmácio LangaricaESPSpain05:38:04  +  00:28:00=32,834 
9191 ESPEmilio RodriguezESPSpain05:38:04  +  00:28:00=32,834 
9292 ESPJosé SerraESPSpain05:38:04  +  00:28:00=32,834 
9393 ITAAdolphe DeleddaFRASouth-East05:38:04  +  00:28:00=32,834 
9494 NEDJan LambrichsNLDHolland05:38:12  +  00:28:08=32,821 
9595 ITAAngelo BrignoleITAItaly05:38:12  +  00:28:08=32,821 
9696 NEDFrans PauwelsNLDHolland05:38:12  +  00:28:08=32,821 
9797 ITAGiovanni CorrieriITAItaly05:38:12  +  00:28:08=32,821 
9898 NEDHuub SijenNLDHolland05:38:12  +  00:28:08=32,821 
9999 ESPBernardo RuízESPSpain05:38:12  +  00:28:08=32,821 
100100 ITAGuido De SantiITAItaly05:38:33  +  00:28:29=32,787 
101101 FRAPaul GiguetFRASouth-East05:38:33  +  00:28:29=32,787 
102102 GEREdouard KlabinskiFRAWest-North05:38:33  +  00:28:29=32,787 
103103 GERCésar MarcelakFRAWest-North05:38:33  +  00:28:29=32,787 

Withdrawls: 10
 
Rider
Team
Reason
16  BELLeon JomauxBELBelgiumDid not finish
43  LUXRené BieverLUXLuxembourgDid not finish
62  ITAGiuseppe CeramiITACadetti ItaliensDid not finish
67  BELJean BreuerBELAiglons BelgesDid not finish
77  FRAGeorges GuillierFRAIle De FranceDid not finish
84  FRALouis ThiétardFRAIle De FranceDid not finish
90  BELLucien MaelfaitFRAWest-NorthDid not finish
93  FRAFrançois PersonFRAWest-NorthDid not finish
96  FRAEloi TassinFRAWest-NorthDid not finish
119  FRARaoul RemyFRASouth-EastDid not finish
Todays birthdays.

1874  Achille Colas
1895  Lucien Meunier
1902  Lazare Venot
1915  Albert Gijsen
1924  Marcel Zelasco
1930  Juan Campillo
1931  Jean-Claude Skerl
1934  Jean Selic
1935  Arnaldo Pambianco
1955  Mario Beccia
1956  Daniel Willems
1957  Dominique Sanders
1959  Marc Sergeant
1960  Éric Caritoux
1963  Jelle Nijdam
1971  Arnaud Prétot
1980  Piet Rooijakkers